千帆星座-162(QIANFAN-162)

导读

QIANFAN-162(NORAD编号69121)是中国千帆星座(又称G60星链)的组网卫星,由上海垣信卫星科技有限公司(Spacesail)开发运营,属于低轨高通量宽带通信卫星,运行于距地表160-2000公里的近地轨道。 作为第九批千帆组网卫星之一,该卫星于2026年5月随长征八号运载火箭在海南商业航天发射场成功入轨,入轨后运行状态良好。卫星采用平板式设计,依托低轨轨道优势具备传输时延短、链路损耗低的特点,将为千帆星座构建全球大带宽卫星互联网提供支撑,助力全球组网覆盖,服务大众通信、应急通信、物联网连接等多元场景。

Basic Information
目录编号:
69121
目录名称:
QIANFAN-162
国际标识:
2026-108T
轨道中心:
EARTH
卫星名称:
千帆星座-162
卫星全名:
千帆星座-162(QIANFAN-162)
卫星状态:
在轨 (已飞行117 天)
发射日期:
2026-05-17 UTC
国别 :
中国 (CN)
星等 :
--
This satellite is enrolled in the Space Conjunction Data Service (SCDS) and the current flight risk assessment level is: No High Risk
Orbit Information
数据来源 国际轨道数据 AOE轨道数据
星历时间 2026-09-11T15:52:30+0800
5小时前
查看轨道信息
2026-09-07T05:00:00+0800
4天前
查看轨道信息
半长轴 7446.64km 7446.643km
偏心率 0.0002182 0.0002189
轨道倾角 89.019° 89.018°
近地点辐角 100.288° 99.631°
升交点赤经 13.369° 13.812°
平近点角 259.851° 214.800°
近地点 1066.878km 1066.875km
远地点 1070.128km 1070.137km
周期 106.586分钟 106.586分钟
每日圈数 13.510215 13.510207
Detailed Information
卫星平台:
162
覆盖范围:
全球
运营商:
上海垣信卫星科技有限公司
运营商所在国:
中国
使用方式:
暂无
Satellite Introduction
千帆星座,也被称为“G60星链”计划,是中国版“星链”的重要组成部分,旨在打造一个由1.4万多颗低轨宽频多媒体卫星构成的庞大星座。千帆星座计划由上海垣信卫星科技有限公司负责实施,于2023年启动建设。该项目是我国第二个低轨卫星大星座,旨在通过构建庞大的卫星网络,为全球用户提供高质量的通信和宽带互联网服务。
2D Orbit Map
3D Orbit Map
Orbit Altitude Analysis Chart
Orbit Inclination Analysis Chart
Orbit Comprehensive Analysis Chart
View Comprehensive Chart
Conjunction Data List
Event ID Objects TCA Miss Dist (km) Collision Risk Probability Collision Risk Index (CRI) Action
CDM_260905-000503-401806-912125
2026-09-05T
00:05:47+0000
1.447 km
极远距离
2.387444E-6 低风险 0.43
Miss Distance Evolution Trend with All Objects
Collision Probability Evolution Trend with All Objects